SAUDISAT 1C (SO-50) (27607 NORAD) Tracking and Keplerian Element Data

This shows tracking and keplerian element data for the satellite.

Feedback or suggestion? Click here.




ElementValue
Catalog27607
NameSAUDISAT 1C (SO-50)
Epoch Orbit86959
Epoch Day52.36285644
Epoch Year2019
RAAN48.3062
Inclination64.5548
Eccentricity0.0082106
Argument of Perigee278.8121
Mean Anonmoly80.369
Mean Motion14.75521486
Decay Rate-3.1E-07
L11 27607U 02058C 19052.36285644 -.00000031 00000-0 16535-4 0 9991
L22 27607 64.5548 48.3062 0082106 278.8121 80.3690 14.75521486869591

Live tracking and technical data element details for SAUDISAT 1C (SO-50) (NORAD 27607). SAUDISAT 1C (SO-50) can be tracked NOW for your location showing map with azimuth and elevation plus other details from your city location.

Track the satellite on the map from your city or location and see movement details for azimuth, elevation, latitude, longitude, range, height, and movement on the map or in text.







IsCatalogInMostPopularTable: catalog: 27607, numindb: 147
Update: records affected: 1



GetName: 27607 SAUDISAT 1C (SO-50)

Hit Count: updated at: Fri, 22 Feb 2019 23:30:07 GMT